Weather History for Sanford, FL

Change the Weather History Date:

Wednesday, January 4, 2012

  Actual Average Record
Temperature  
Mean Temperature 44 °F -  
Max Temperature 57 °F 72 °F 83 °F (1971)
Min Temperature 30 °F 51 °F 29 °F (1979)
Degree Days  
Heating Degree Days 22    
Growing Degree Days 0 (Base 50)    
Moisture  
Dew Point 22 °F    
Average Humidity 44    
Maximum Humidity 67    
Minimum Humidity 22    
Precipitation  
Precipitation 0.00 in - - ()
Sea Level Pressure  
Sea Level Pressure 30.38 in    
Wind  
Wind Speed 6 mph (NNW)    
Max Wind Speed 9 mph    
Max Gust Speed -    
Visibility 10 miles    
Events      
Averages and records for this station are not official NWS values.
T = Trace of Precipitation, MM = Missing Value Source: NWS Daily Summary

Daily Weather History Graph

Daily Weather History Graph

Search for Another Location

Airport:

Trip Planner

Search our weather history database for the weather conditions in past years. The results will help you decide how hot, cold, wet, or windy it might be!

Date:

Astronomy

Jan. 04, 2012 Rise Set
Actual Time 7:18 AM EST 5:40 PM EST
Civil Twilight 6:52 AM EST 6:06 PM EST
Nautical Twilight 6:23 AM EST 6:36 PM EST
Astronomical Twilight 5:54 AM EST 7:04 PM EST
Moon 2:00 PM EST (1/4) 3:09 AM EST (1/4)
Length of Visible Light 11h 13m
Length of Day
10h 22m
Waxing Gibbous, 80% of the Moon is Illuminated
Jan 4
Waxing Gibbous
Jan 9
Full
Jan 16
Last Quarter
Jan 23
New
Jan 30
First Quarter

Hourly Weather History & Observations

Time (EST) Temp. Windchill Dew Point Humidity Pressure Visibility Wind Dir Wind Speed Gust Speed Precip Events Conditions
12:53 AM 37.0 °F 31.6 °F 19.9 °F 50% 30.41 in 10.0 mi North 6.9 mph - N/A   Clear
1:53 AM 37.9 °F 32.1 °F 17.1 °F 43% 30.41 in 10.0 mi North 8.1 mph - N/A   Clear
2:53 AM 37.4 °F 32.1 °F 17.6 °F 45% 30.40 in 10.0 mi NNW 6.9 mph - N/A   Clear
3:53 AM 30.9 °F 24.3 °F 21.0 °F 67% 30.41 in 10.0 mi NW 6.9 mph - N/A   Clear
4:53 AM 32.0 °F 26.4 °F 21.0 °F 64% 30.41 in 10.0 mi NW 5.8 mph - N/A   Clear
5:53 AM 36.0 °F 29.0 °F 21.0 °F 55% 30.41 in 10.0 mi North 9.2 mph - N/A   Clear
6:53 AM 36.0 °F 29.6 °F 19.0 °F 50% 30.42 in 10.0 mi North 8.1 mph - N/A   Clear
7:53 AM 37.0 °F 30.4 °F 18.0 °F 46% 30.44 in 10.0 mi North 9.2 mph - N/A   Clear
8:53 AM 39.9 °F 33.9 °F 17.1 °F 40% 30.45 in 10.0 mi NNW 9.2 mph - N/A   Clear
9:53 AM 44.1 °F 40.8 °F 21.9 °F 42% 30.46 in 10.0 mi NNW 5.8 mph - N/A   Clear
10:53 AM 48.2 °F - 26.6 °F 43% 30.45 in 10.0 mi North 6.9 mph - N/A   Clear
11:53 AM 53.1 °F - 28.9 °F 40% 30.42 in 10.0 mi NNE 5.8 mph - N/A   Clear
12:53 PM 55.0 °F - 25.0 °F 31% 30.38 in 10.0 mi NNE 5.8 mph - N/A   Clear
1:53 PM 57.0 °F - 18.0 °F 22% 30.35 in 10.0 mi Calm Calm - N/A   Clear
2:53 PM 57.0 °F - 18.0 °F 22% 30.34 in 10.0 mi Calm Calm - N/A   Clear
3:53 PM 57.2 °F - 21.2 °F 25% 30.33 in 10.0 mi Calm Calm - N/A   Clear
4:53 PM 55.9 °F - 21.0 °F 26% 30.33 in 10.0 mi ESE 3.5 mph - N/A   Clear
5:53 PM 53.1 °F - 25.0 °F 34% 30.32 in 10.0 mi Calm Calm - N/A   Clear
6:53 PM 48.0 °F - 27.0 °F 44% 30.34 in 10.0 mi WSW 3.5 mph - N/A   Clear
7:53 PM 46.9 °F - 25.0 °F 42% 30.34 in 10.0 mi West 3.5 mph - N/A   Clear
8:53 PM 42.1 °F 40.2 °F 27.0 °F 55% 30.35 in 10.0 mi West 3.5 mph - N/A   Clear
9:53 PM 41.0 °F - 26.1 °F 55% 30.35 in 10.0 mi Calm Calm - N/A   Clear
10:53 PM 39.0 °F 34.8 °F 25.0 °F 57% 30.35 in 10.0 mi West 5.8 mph - N/A   Clear
11:53 PM 37.9 °F 33.5 °F 26.1 °F 62% 30.35 in 10.0 mi NW 5.8 mph - N/A   Clear